Regional Weather Roundup
Issued by NWS

Home | Current Version | Previous Version | Text Only | Print | Product List | Glossary On
Versions: 1 2 3 4 5 6 7 8 9 10 11 12 13 14 15 16 17 18 19 20 21 22 23 24 25 26 27 28 29 30 31 32 33 34 35 36 37 38 39 40 41 42 43 44 45 46 47 48 49 50
000
ASCA42 TJSJ 230511
RWRPR
PUERTO RICO/U.S. VIRGIN ISLANDS HOURLY WEATHER ROUNDUP
NATIONAL WEATHER SERVICE SAN JUAN PR
100 AM AST TUE DEC 23 2014

PRZ001-004-230600-
PUERTO RICO

CITY           SKY/WX    TMP DP  RH WIND       PRES   REMARKS
SAN JUAN LMM   PTCLDY    77  73  88 CALM      30.02F
PONCE          PTCLDY    72  68  88 NE6       29.99S
CEIBA          PTCLDY    79  73  83 E5        30.04F
$$

PRZ006-007-230600-
U.S. VIRGIN ISLANDS

CITY           SKY/WX    TMP DP  RH WIND       PRES   REMARKS
$$

HOURLY WEATHER ROUNDUP FOR THE NEWS MEDIA

CITY           SKY/WX    TMP DP  RH WIND       PRES   REMARKS
MIAMI          MOCLDY    73  70  90 SE5       29.97F
ORLANDO        PTCLDY    68  67  96 S5        29.95F
NEW YORK       CLOUDY    47  43  86 E14       30.16F
NEWARK         CLOUDY    46  43  89 NE10      30.14F
CHICAGO        CLOUDY    41  39  93 E14       29.60F FOG
HARTFORD       CLOUDY    41  38  89 NE8       30.25F
BOSTON         MOCLDY    42  37  82 E12       30.29F
DALLAS         CLOUDY    51  43  74 N7        29.69R
PHILADELPHIA   CLOUDY    44  41  89 NE7       30.11F FOG


USA.gov is the U.S. government's official web portal to all federal, state and local government web resources and services.